Weather in Novyj Gorodok

Russia / Kemerovo Oblast     54°18′12″N   86°17′36″E
temp.,
°C
wind,
m/s
gust,
m/s
humid.,
%
clouds,
%
prec.,
mm/h
press.,
hPa
HPBL,
m
16 october, sat
sat1601:000nnw11780 0.0 103410
04:000nnw11760 0.0 103310
07:000nw11750 0.0 103210
10:00+3nnw11640 0.0 1031123
13:00+6ne11530 0.0 1029344
16:00+7ne11525 0.0 1028368
19:00+3ne11690 0.0 102810
22:00+2s007416 0.0 102810
17 october, sun
sun1701:00+1s117249 0.0 102710
04:00+1sse117195 0.0 102610
07:00+1sse117287 0.0 102710
10:00+4se126385 0.0 1026102
13:00+8sse125072 0.0 1025436
16:00+10ne115272 0.0 1025112
19:00+5sse116863 0.0 102610
22:00+4ssw227155 0.0 102611
18 october, mon
mon1801:00+3ssw2273100 0.0 102611
04:00+3ssw2277100 0.0 102613
07:00+2ssw228261 0.0 102617
10:00+4ssw1476100 0.0 1027139
13:00+8sw3559100 0.0 1026658
16:00+8wsw3454100 0.0 1026846
19:00+5sw2368100 0.0 102749
22:00+4sw2273100 0.0 102828
19 october, tue
tue1901:00+3sw117577 0.0 102812
04:00+2ssw11785 0.0 102810
07:00+1s22795 0.0 102910
10:00+4s12675 0.0 1029117
13:00+8sse12535 0.0 1028508
16:00+9ese115058 0.0 1027612
19:00+5se226860 0.0 102711
22:00+4se1171100 0.0 102710
20 october, wed
wed2001:00+4se1170100 0.0 102610
04:00+4e1171100 0.0 102510
07:00+3se1173100 0.0 102410
10:00+5ese11645 0.0 102470
13:00+10ese23475 0.0 1022344
16:00+11ese23480 0.0 1020335
19:00+6sse22630 0.0 102012
22:00+5s22665 0.0 101919